Вернуться в каталог

FENGYUN 1C DEB

АктивенSSO
NORAD 29914·DEBRIS·🇨🇳 China

Запущен May 10, 1999 с Taiyuan Satellite Launch Center

Loading…

Ближайшие Пролёты (ближайшие 24 часа)

TLE

СвежийSource: Space-Track

Эпоха: Sep 14, 2026, 07:33 UTC

1 29914U 99025HL  26257.31473473  .00000162  00000-0  13022-3 0  9994
2 29914  98.8182 282.7488 0036338  67.1392 356.7384 14.03234592  6503

Отслеживайте FENGYUN 1C DEB в реальном времени с AllMySat

Download on the App Store